FCYMT CYYR-KBGR

Flight info

Callsign FCYMT
Flight time N/A
Altitude 36000
Route TASTI DCT ALKOB DCT TABRU DCT QUBIS DCT PQI J49 BGR
Aircraft A321/M-SDE3FGHIRWY/LB1

Departure

Time N/A
Airport Goose Bay Airport (CYYR)

Arrival

Time 2026-04-25 07:21
Airport Bangor International Airport (KBGR)
Time Latitude Longitude Altitude Speed Heading
2026-04-25 06:34 49.38251 -66.76197 35866 ft 494 kts 198°
2026-04-25 06:35 49.31826 -66.79819 35864 ft 495 kts 198°
2026-04-25 06:35 49.25349 -66.83459 35867 ft 495 kts 198°
2026-04-25 06:36 49.18903 -66.87074 35861 ft 496 kts 198°
2026-04-25 06:36 49.12431 -66.90694 35869 ft 496 kts 198°
2026-04-25 06:37 49.05976 -66.94295 35866 ft 496 kts 198°
2026-04-25 06:37 48.99551 -66.97864 35852 ft 496 kts 198°
2026-04-25 06:38 48.93039 -67.01473 35844 ft 497 kts 198°
2026-04-25 06:38 48.86446 -67.05121 35819 ft 496 kts 198°
2026-04-25 06:39 48.79279 -67.09071 35803 ft 497 kts 198°
2026-04-25 06:39 48.72199 -67.12963 35790 ft 497 kts 198°
2026-04-25 06:40 48.65154 -67.16824 35786 ft 497 kts 198°
2026-04-25 06:40 48.58044 -67.20706 35803 ft 498 kts 198°
2026-04-25 06:41 48.51032 -67.24528 35806 ft 498 kts 198°
2026-04-25 06:41 48.44406 -67.28127 35805 ft 497 kts 198°
2026-04-25 06:42 48.37779 -67.31718 35805 ft 498 kts 198°
2026-04-25 06:42 48.30940 -67.35411 35814 ft 498 kts 198°
2026-04-25 06:43 48.24034 -67.39129 35814 ft 497 kts 198°
2026-04-25 06:43 48.17413 -67.42685 35798 ft 498 kts 199°
2026-04-25 06:44 48.10925 -67.46163 35795 ft 498 kts 198°
2026-04-25 06:44 48.04189 -67.49764 35791 ft 498 kts 198°
2026-04-25 06:45 47.97350 -67.53405 35776 ft 498 kts 199°
2026-04-25 06:45 47.90623 -67.56975 35778 ft 497 kts 199°
2026-04-25 06:46 47.84033 -67.60463 35777 ft 497 kts 199°
2026-04-25 06:46 47.77507 -67.63913 35790 ft 498 kts 199°
2026-04-25 06:47 47.70976 -67.67358 35788 ft 497 kts 198°
2026-04-25 06:47 47.64466 -67.70776 35796 ft 497 kts 198°
2026-04-25 06:48 47.57978 -67.74173 35799 ft 498 kts 198°
2026-04-25 06:48 47.51414 -67.77461 35789 ft 497 kts 195°
2026-04-25 06:49 47.44773 -67.80374 35791 ft 497 kts 195°
2026-04-25 06:49 47.38026 -67.83316 35802 ft 497 kts 195°
2026-04-25 06:50 47.31128 -67.86318 35809 ft 497 kts 195°
2026-04-25 06:50 47.24284 -67.89294 35802 ft 497 kts 195°
2026-04-25 06:51 47.17449 -67.92253 35803 ft 497 kts 195°
2026-04-25 06:51 47.10601 -67.95215 35804 ft 497 kts 195°
2026-04-25 06:52 47.03730 -67.98176 35807 ft 497 kts 195°
2026-04-25 06:52 46.96891 -68.01117 35815 ft 497 kts 195°
2026-04-25 06:53 46.90088 -68.04036 35819 ft 498 kts 195°
2026-04-25 06:53 46.83211 -68.06975 35818 ft 498 kts 195°
2026-04-25 06:54 46.76335 -68.09901 35585 ft 498 kts 195°
2026-04-25 06:54 46.72993 -68.11306 35361 ft 495 kts 195°
2026-04-25 06:54 46.69714 -68.12675 35141 ft 493 kts 195°
2026-04-25 06:54 46.66431 -68.14040 34920 ft 492 kts 196°
2026-04-25 06:55 46.63157 -68.15402 34695 ft 491 kts 195°
2026-04-25 06:55 46.59887 -68.16760 34474 ft 491 kts 196°
2026-04-25 06:55 46.56608 -68.18121 34250 ft 492 kts 196°
2026-04-25 06:55 46.53318 -68.19485 34018 ft 493 kts 196°
2026-04-25 06:56 46.50037 -68.20842 33781 ft 494 kts 196°
2026-04-25 06:56 46.46763 -68.22199 33546 ft 495 kts 195°
2026-04-25 06:56 46.43425 -68.23576 33314 ft 496 kts 196°
2026-04-25 06:56 46.40105 -68.24947 33008 ft 498 kts 195°
2026-04-25 06:57 46.36787 -68.26315 32508 ft 500 kts 196°
2026-04-25 06:57 46.33481 -68.27677 31851 ft 504 kts 196°
2026-04-25 06:57 46.30101 -68.29065 31100 ft 510 kts 196°
2026-04-25 06:57 46.26675 -68.30471 30402 ft 513 kts 195°
2026-04-25 06:58 46.23214 -68.31893 29826 ft 511 kts 196°
2026-04-25 06:58 46.19825 -68.33280 29301 ft 510 kts 195°
2026-04-25 06:58 46.16385 -68.34686 28785 ft 507 kts 195°
2026-04-25 06:58 46.12953 -68.36086 28282 ft 503 kts 196°
2026-04-25 06:59 46.09540 -68.37476 27801 ft 499 kts 195°
2026-04-25 06:59 46.06140 -68.38860 27319 ft 495 kts 196°
2026-04-25 06:59 46.02707 -68.40259 26789 ft 491 kts 196°
2026-04-25 06:59 45.99304 -68.41640 26309 ft 487 kts 196°
2026-04-25 07:00 45.95908 -68.43019 25742 ft 482 kts 196°
2026-04-25 07:00 45.92586 -68.44366 25248 ft 476 kts 196°
2026-04-25 07:00 45.89242 -68.45718 24759 ft 471 kts 196°
2026-04-25 07:00 45.85924 -68.47056 24260 ft 465 kts 196°
2026-04-25 07:01 45.82683 -68.48364 23753 ft 460 kts 197°
2026-04-25 07:01 45.79422 -68.49680 23241 ft 454 kts 197°
2026-04-25 07:01 45.76207 -68.50973 22764 ft 449 kts 197°
2026-04-25 07:01 45.72959 -68.52279 22237 ft 444 kts 197°
2026-04-25 07:02 45.69719 -68.53581 21721 ft 439 kts 197°
2026-04-25 07:02 45.66452 -68.54890 21198 ft 434 kts 197°
2026-04-25 07:02 45.63309 -68.56148 20685 ft 429 kts 197°
2026-04-25 07:02 45.60328 -68.57340 20188 ft 424 kts 198°
2026-04-25 07:03 45.57252 -68.58572 19678 ft 420 kts 198°
2026-04-25 07:03 45.54238 -68.59776 19184 ft 415 kts 198°
2026-04-25 07:03 45.51207 -68.60986 18670 ft 411 kts 198°
2026-04-25 07:03 45.48238 -68.62170 18165 ft 406 kts 198°
2026-04-25 07:04 45.45260 -68.63357 17660 ft 402 kts 198°
2026-04-25 07:04 45.42258 -68.64550 17136 ft 398 kts 198°
2026-04-25 07:04 45.39312 -68.65720 16617 ft 395 kts 198°
2026-04-25 07:04 45.36410 -68.66872 16094 ft 391 kts 198°
2026-04-25 07:05 45.33554 -68.68004 15588 ft 388 kts 198°
2026-04-25 07:05 45.30747 -68.69115 15167 ft 382 kts 198°
2026-04-25 07:05 45.27988 -68.70205 14706 ft 369 kts 198°
2026-04-25 07:05 45.25324 -68.71254 14169 ft 353 kts 198°
2026-04-25 07:06 45.22819 -68.72239 13700 ft 337 kts 198°
2026-04-25 07:06 45.20398 -68.73192 13263 ft 322 kts 199°
2026-04-25 07:06 45.18113 -68.74093 12848 ft 312 kts 199°
2026-04-25 07:06 45.15964 -68.74941 12466 ft 308 kts 199°
2026-04-25 07:07 45.13698 -68.75836 12059 ft 306 kts 199°
2026-04-25 07:07 45.11421 -68.76733 11653 ft 303 kts 199°
2026-04-25 07:07 45.09197 -68.77606 11322 ft 299 kts 199°
2026-04-25 07:07 45.07034 -68.78455 10991 ft 297 kts 199°
2026-04-25 07:08 45.05038 -68.79238 10689 ft 295 kts 199°
2026-04-25 07:08 45.02893 -68.80079 10358 ft 293 kts 199°
2026-04-25 07:08 45.00751 -68.80919 10060 ft 289 kts 199°
2026-04-25 07:08 44.98624 -68.81752 9900 ft 289 kts 199°
2026-04-25 07:09 44.96525 -68.82574 9655 ft 290 kts 199°
2026-04-25 07:09 44.94394 -68.83406 9301 ft 287 kts 199°
2026-04-25 07:09 44.92260 -68.84239 8922 ft 286 kts 198°
2026-04-25 07:09 44.90110 -68.85078 8550 ft 285 kts 198°
2026-04-25 07:10 44.88005 -68.85899 8178 ft 283 kts 198°
2026-04-25 07:10 44.85873 -68.86696 7827 ft 280 kts 193°
2026-04-25 07:10 44.83784 -68.86478 7459 ft 279 kts 158°
2026-04-25 07:10 44.82076 -68.84766 7126 ft 273 kts 133°
2026-04-25 07:11 44.80642 -68.82621 6809 ft 269 kts 131°
2026-04-25 07:11 44.79245 -68.80514 6501 ft 264 kts 131°
2026-04-25 07:11 44.77848 -68.78453 6196 ft 260 kts 132°
2026-04-25 07:11 44.76475 -68.76463 5901 ft 256 kts 132°
2026-04-25 07:12 44.75127 -68.74528 5614 ft 252 kts 132°
2026-04-25 07:12 44.72590 -68.70911 5065 ft 245 kts 131°
2026-04-25 07:12 44.71335 -68.69123 4754 ft 243 kts 131°
2026-04-25 07:13 44.70087 -68.67349 4446 ft 242 kts 131°
2026-04-25 07:13 44.68824 -68.65557 4113 ft 241 kts 131°
2026-04-25 07:13 44.67591 -68.63808 3780 ft 240 kts 131°
2026-04-25 07:13 44.66352 -68.62053 3454 ft 238 kts 130°
2026-04-25 07:14 44.65123 -68.60355 3121 ft 238 kts 137°
2026-04-25 07:14 44.63557 -68.59345 2831 ft 240 kts 174°
2026-04-25 07:14 44.61865 -68.59736 2809 ft 240 kts 210°
2026-04-25 07:14 44.60598 -68.61376 2807 ft 233 kts 246°
2026-04-25 07:15 44.60239 -68.63625 2805 ft 222 kts 282°
2026-04-25 07:15 44.60879 -68.65651 2805 ft 211 kts 318°
2026-04-25 07:15 44.62217 -68.66628 2819 ft 205 kts 355°
2026-04-25 07:15 44.63645 -68.66254 2790 ft 194 kts 24°
2026-04-25 07:16 44.64904 -68.65466 2783 ft 175 kts 16°
2026-04-25 07:16 44.66115 -68.65167 2858 ft 161 kts
2026-04-25 07:16 44.67223 -68.65380 2778 ft 140 kts 346°
2026-04-25 07:16 44.68167 -68.65896 2818 ft 139 kts 336°
2026-04-25 07:17 44.69041 -68.66625 2803 ft 137 kts 329°
2026-04-25 07:17 44.69838 -68.67467 2758 ft 137 kts 325°
2026-04-25 07:17 44.70581 -68.68359 2464 ft 136 kts 323°
2026-04-25 07:17 44.71315 -68.69309 2249 ft 135 kts 321°
2026-04-25 07:18 44.72049 -68.70290 2108 ft 134 kts 320°
2026-04-25 07:18 44.72768 -68.71280 2111 ft 135 kts 320°
2026-04-25 07:18 44.73483 -68.72297 1991 ft 135 kts 319°
2026-04-25 07:18 44.74186 -68.73315 1782 ft 134 kts 318°
2026-04-25 07:19 44.74894 -68.74343 1577 ft 134 kts 317°
2026-04-25 07:19 44.75594 -68.75362 1374 ft 133 kts 317°
2026-04-25 07:19 44.76302 -68.76388 1169 ft 133 kts 316°
2026-04-25 07:19 44.77016 -68.77421 968 ft 133 kts 316°
2026-04-25 07:20 44.77716 -68.78433 766 ft 134 kts 315°
2026-04-25 07:20 44.78431 -68.79468 559 ft 135 kts 314°
2026-04-25 07:20 44.79147 -68.80502 352 ft 135 kts 314°
2026-04-25 07:20 44.79847 -68.81519 171 ft 134 kts 313°
2026-04-25 07:21 44.80465 -68.82427 162 ft 97 kts 314°
2026-04-25 07:21 44.80840 -68.82970 177 ft 51 kts 314°
2026-04-25 07:21 44.81045 -68.83242 187 ft 24 kts 319°
2026-04-25 07:21 44.81147 -68.83308 191 ft 13 kts
2026-04-25 07:22 44.81176 -68.83289 191 ft 0 kts 36°
2026-04-25 07:23 44.81190 -68.83275 191 ft 6 kts 38°
2026-04-25 07:23 44.81244 -68.83208 192 ft 13 kts 41°
2026-04-25 07:23 44.81304 -68.83119 193 ft 11 kts 59°
2026-04-25 07:23 44.81285 -68.82995 191 ft 14 kts 125°
2026-04-25 07:24 44.81212 -68.82884 187 ft 15 kts 135°
2026-04-25 07:24 44.81124 -68.82767 182 ft 18 kts 134°
2026-04-25 07:24 44.81027 -68.82624 176 ft 20 kts 133°
2026-04-25 07:24 44.80922 -68.82465 171 ft 20 kts 133°
2026-04-25 07:25 44.80835 -68.82341 167 ft 9 kts 134°
2026-04-25 07:25 44.80821 -68.82265 165 ft 9 kts 57°
2026-04-25 07:25 44.80857 -68.82173 164 ft 12 kts 65°
2026-04-25 07:25 44.80891 -68.82040 162 ft 16 kts 77°
2026-04-25 07:26 44.80899 -68.81912 160 ft 10 kts 111°
2026-04-25 07:26 44.80864 -68.81853 158 ft 0 kts 133°